[[{"header":{"parameterUnit":"m.s-1","parameterCategory":1,"la1":30.2991,"la2":30.254,"lo1":-89.0895,"lo2":-89.0444,"dy":0.0017,"dx":0.0017,"nx":28,"ny":28,"refTime":"2024-12-19T03:00:00:Z","depth":0,"parameterNumber":2,"parameterNumberName":"U-component_of_WINDS"},"data":[0,0,0,0,0,0,0,0,0,0,0,0,0,0,0,0,0,0,0,0,0,0,0,0,0,0,0,0,0,0,0,0,0,0,0,0,0,0,0,0,0,0,0,0,0,0,0,0,0,0,0,0,0,0,0,0,0,0,0.4883,0.4883,0,0.4833,0.4832,0.4832,0.4816,0.4816,0.4816,0.4816,0.4764,0.4763,0.4761,0,0,0,0,0,0,0,0,0,0,0,0,0,0.4967,0.4965,0.4884,0.4883,0.4882,0.4833,0.4832,0.4832,0.4816,0.4816,0.4816,0.4816,0.4765,0.4763,0.4761,0,0,0,0,0,0,0,0,0,0,0,0,0,0.4925,0.4965,0.4884,0.4868,0.4866,0.4833,0.4832,0.4832,0.4816,0.4816,0.4816,0.4817,0.4765,0.4763,0.4761,0.4739,0,0,0.4753,0.4752,0,0,0,0,0,0,0,0,0.4927,0.4922,0.4871,0.4869,0.4867,0.4831,0.4843,0.48,0.4815,0.4835,0.4816,0.4817,0.4786,0.4782,0.4772,0.4736,0.4734,0.4753,0.4752,0.475,0.475,0,0,0,0,0,0,0,0.493,0.4924,0.4864,0.487,0.4868,0.4864,0.4859,0.4834,0.4809,0.4833,0.4832,0.4826,0.4785,0.4774,0.477,0.4733,0.4753,0.4751,0.4749,0.4748,0.4679,0.4678,0,0,0,0,0,0,0.4936,0.4926,0.4865,0.4862,0.4899,0.4862,0.4856,0.4842,0.4809,0.4805,0.4826,0.4826,0.4778,0.4773,0.4768,0.4741,0.475,0.4748,0.4747,0.4679,0.4679,0.4678,0,0,0,0,0,0,0.4937,0.493,0.4867,0.4894,0.4885,0.4861,0.4845,0.4841,0.483,0.4804,0.4799,0.4819,0.4778,0.4772,0.4747,0.4739,0.4747,0.4745,0.468,0.4679,0.4678,0.4686,0,0,0,0,0,0,0.494,0.4931,0.4922,0.4894,0.4884,0.4846,0.4845,0.484,0.4826,0.4825,0.4796,0.4792,0.4778,0.475,0.4744,0.4736,0.4743,0.468,0.4679,0.4679,0.4686,0.4686,0.4685,0,0,0,0,0,0.4943,0.4926,0.4922,0.4914,0.4873,0.4845,0.484,0.4824,0.4825,0.4817,0.48,0.4793,0.4741,0.4748,0.4741,0.4732,0.468,0.468,0.4679,0.4687,0.4686,0.4685,0,0,0,0,0,0,0.4954,0.4922,0.4917,0.489,0.4871,0.4843,0.4831,0.4824,0.4803,0.4803,0.4784,0.4778,0.4754,0.4741,0.4748,0.471,0.4711,0.4708,0.4719,0.4718,0.4718,0.4721,0.4741,0,0,0,0,0,0.4953,0.4934,0.4907,0.4886,0.4877,0.4856,0.4843,0.4833,0.4812,0.4803,0.4785,0.4765,0.4744,0.473,0.471,0.4685,0.4679,0.4675,0.4675,0.4675,0.4672,0.4659,0.4657,0.4675,0.4675,0.4675,0,0,0.4951,0.4932,0.492,0.4888,0.4872,0.4852,0.4849,0.4828,0.4813,0.48,0.4775,0.4761,0.4737,0.4712,0.47,0.47,0.4666,0.4673,0.4673,0.4671,0.4658,0.4656,0.4655,0.4674,0.4675,0.4675,0,0,0.4938,0.4921,0.4902,0.4886,0.4862,0.4848,0.4844,0.4817,0.4807,0.4782,0.4772,0.4755,0.4719,0.4703,0.469,0.4673,0.4666,0.4667,0.4664,0.4651,0.4649,0.4648,0.4642,0.464,0.4665,0.4665,0.4665,0,0.4939,0.4909,0.4893,0.4874,0.486,0.4848,0.4829,0.4814,0.4784,0.4775,0.4775,0.4731,0.4715,0.4686,0.4682,0.4672,0.4666,0.4669,0.4651,0.4649,0.4648,0.4642,0.464,0.4665,0.4665,0.4665,0.4665,0,0.4911,0.4891,0.4879,0.4851,0.4836,0.4816,0.4798,0.4785,0.4777,0.4763,0.4738,0.4718,0.4693,0.4686,0.4677,0.4656,0.4657,0.4655,0.4655,0.4647,0.4641,0.4638,0.4666,0.4666,0.4666,0.4666,0,0,0.4902,0.4867,0.4862,0.485,0.4823,0.4807,0.4788,0.4764,0.4753,0.4733,0.4717,0.4688,0.4686,0.4671,0.4661,0.465,0.4638,0.4648,0.4648,0.4647,0.4614,0.4615,0.4613,0.4633,0.4633,0.4632,0.4616,0,0.4885,0.4849,0.4836,0.4807,0.4788,0.4778,0.4761,0.4743,0.473,0.4713,0.4699,0.4679,0.4677,0.4668,0.4657,0.4641,0.4631,0.4643,0.4618,0.4617,0.4623,0.461,0.4611,0.4596,0.4613,0.4613,0.4613,0,0.486,0.484,0.481,0.4786,0.4778,0.4763,0.4741,0.4724,0.4704,0.4696,0.468,0.4671,0.4651,0.4654,0.4626,0.4634,0.4624,0.4615,0.4614,0.461,0.4614,0.4605,0.4591,0.4589,0.4609,0.4609,0.4609,0,0.4856,0.4822,0.48,0.4789,0.4761,0.4751,0.4739,0.4719,0.4706,0.4687,0.4679,0.4658,0.4646,0.463,0.4615,0.4619,0.4589,0.4591,0.4582,0.4582,0.4575,0.4575,0.4558,0.4569,0.4569,0.4569,0.4569,0,0.4838,0.4819,0.4798,0.4784,0.4763,0.4748,0.4729,0.4716,0.4698,0.4682,0.4672,0.4657,0.4639,0.4622,0.4611,0.459,0.4585,0.4577,0.4574,0.4578,0.4579,0.457,0.457,0.4569,0.4569,0.4569,0.4569,0,0.4829,0.4814,0.4789,0.4765,0.4758,0.4744,0.4724,0.471,0.4698,0.4678,0.4672,0.4652,0.4632,0.4616,0.459,0.4582,0.456,0.4557,0.4566,0.4565,0.4557,0.4558,0.4532,0.4528,0.4543,0.4543,0.4543,0,0.4818,0.4804,0.4779,0.4767,0.4755,0.4737,0.4724,0.4709,0.4696,0.4673,0.4663,0.4642,0.4624,0.4592,0.4575,0.4555,0.4551,0.4544,0.4548,0.4552,0.4551,0.4552,0.455,0.4543,0.4543,0.4543,0.4543,0,0.48,0.4794,0.4776,0.4755,0.474,0.4723,0.4706,0.4698,0.468,0.4666,0.4645,0.4632,0.4605,0.4584,0.4563,0.4551,0.4544,0.4542,0.4539,0.4542,0.4548,0.4544,0.4564,0.4542,0.4543,0.4543,0.4543,0.4543,0.479,0.4777,0.4758,0.4738,0.4724,0.4709,0.4695,0.4682,0.4664,0.4641,0.4634,0.4612,0.4594,0.4564,0.4552,0.4535,0.4535,0.4531,0.4529,0.4528,0.4528,0.4552,0.4532,0.4531,0.4531,0.4531,0.4531,0,0.4772,0.4759,0.4741,0.4718,0.4703,0.4699,0.468,0.4668,0.4649,0.4632,0.4615,0.4592,0.4572,0.4555,0.4535,0.4525,0.4521,0.452,0.452,0.4518,0.453,0.4534,0.4523,0.4523,0.4523,0.4523,0.4523,0.4523,0.476,0.4738,0.473,0.4701,0.4689,0.4668,0.4658,0.4644,0.463,0.4605,0.4589,0.4578,0.4561,0.454,0.4522,0.4517,0.451,0.451,0.4504,0.4516,0.4517,0.4518,0.4522,0.4508,0.4508,0.4493,0.4493,0.4493]},{"header":{"parameterUnit":"m.s-1","parameterCategory":1,"la1":30.2991,"la2":30.254,"lo1":-89.0895,"lo2":-89.0444,"dy":0.0017,"dx":0.0017,"nx":28,"ny":28,"refTime":"2024-12-19T03:00:00:Z","depth":0,"parameterNumber":3,"parameterNumberName":"V-component_of_WINDS"},"data":[0,0,0,0,0,0,0,0,0,0,0,0,0,0,0,0,0,0,0,0,0,0,0,0,0,0,0,0,0,0,0,0,0,0,0,0,0,0,0,0,0,0,0,0,0,0,0,0,0,0,0,0,0,0,0,0,0,0,-3.9095,-3.9097,0,-3.9215,-3.9217,-3.9218,-3.9247,-3.9246,-3.9246,-3.9245,-3.936,-3.9364,-3.9368,0,0,0,0,0,0,0,0,0,0,0,0,0,-3.8886,-3.889,-3.9095,-3.9097,-3.9098,-3.9215,-3.9217,-3.9218,-3.9247,-3.9246,-3.9245,-3.9245,-3.9359,-3.9364,-3.9368,0,0,0,0,0,0,0,0,0,0,0,0,0,-3.8989,-3.8891,-3.9095,-3.9127,-3.9131,-3.9215,-3.9217,-3.9219,-3.9247,-3.9246,-3.9245,-3.9244,-3.9358,-3.9363,-3.9369,-3.9427,0,0,-3.9386,-3.9389,0,0,0,0,0,0,0,0,-3.8983,-3.8996,-3.9121,-3.9125,-3.913,-3.9215,-3.9185,-3.9288,-3.9248,-3.9203,-3.9245,-3.9243,-3.9313,-3.9322,-3.9347,-3.9432,-3.9437,-3.9387,-3.939,-3.9393,-3.9394,0,0,0,0,0,0,0,-3.8976,-3.8991,-3.9142,-3.9122,-3.9128,-3.9134,-3.9147,-3.9205,-3.9262,-3.9207,-3.9209,-3.9223,-3.9315,-3.9341,-3.935,-3.9439,-3.9387,-3.9392,-3.9395,-3.9397,-3.9581,-3.9582,0,0,0,0,0,0,-3.8964,-3.8985,-3.9139,-3.9146,-3.9052,-3.9138,-3.9153,-3.9189,-3.9262,-3.9272,-3.9224,-3.9224,-3.9332,-3.9343,-3.9354,-3.9429,-3.9393,-3.9398,-3.9401,-3.958,-3.9581,-3.9583,0,0,0,0,0,0,-3.8959,-3.8977,-3.9134,-3.9066,-3.9087,-3.9143,-3.9183,-3.9192,-3.9218,-3.9275,-3.9285,-3.9241,-3.9331,-3.9346,-3.941,-3.9433,-3.94,-3.9406,-3.9578,-3.958,-3.9582,-3.9578,0,0,0,0,0,0,-3.8953,-3.8975,-3.8999,-3.9067,-3.909,-3.9189,-3.9184,-3.9195,-3.9229,-3.923,-3.9294,-3.9303,-3.9332,-3.9401,-3.9415,-3.944,-3.941,-3.9576,-3.9579,-3.9581,-3.9576,-3.958,-3.9583,0,0,0,0,0,-3.8946,-3.8991,-3.9,-3.9018,-3.9121,-3.919,-3.9204,-3.9238,-3.9231,-3.9254,-3.9292,-3.9301,-3.9428,-3.9407,-3.9424,-3.9451,-3.9575,-3.9578,-3.9581,-3.9575,-3.9579,-3.9583,0,0,0,0,0,0,-3.8921,-3.9,-3.9011,-3.908,-3.9129,-3.9195,-3.9226,-3.9241,-3.929,-3.9289,-3.9327,-3.9341,-3.9403,-3.9433,-3.9408,-3.9512,-3.9501,-3.9508,-3.9491,-3.9495,-3.9499,-3.949,-3.9415,0,0,0,0,0,-3.8924,-3.8976,-3.9041,-3.9095,-3.912,-3.9169,-3.92,-3.9223,-3.9273,-3.9293,-3.9335,-3.9382,-3.9433,-3.9465,-3.9515,-3.9581,-3.9596,-3.9607,-3.9611,-3.9613,-3.9619,-3.9658,-3.9664,-3.9594,-3.9594,-3.9594,0,0,-3.893,-3.898,-3.9009,-3.9092,-3.9132,-3.9184,-3.9186,-3.9239,-3.9278,-3.9301,-3.9365,-3.9397,-3.9452,-3.9518,-3.9549,-3.9545,-3.9642,-3.9617,-3.9619,-3.9623,-3.9662,-3.9669,-3.9674,-3.9596,-3.9596,-3.9595,0,0,-3.8968,-3.901,-3.9062,-3.9103,-3.9166,-3.9199,-3.9211,-3.9276,-3.93,-3.9366,-3.9385,-3.943,-3.9516,-3.9556,-3.9587,-3.9643,-3.9654,-3.9658,-3.9675,-3.9713,-3.9718,-3.9723,-3.9745,-3.9752,-3.9663,-3.9663,-3.9663,0,-3.8966,-3.9047,-3.9085,-3.914,-3.9176,-3.9203,-3.9255,-3.9293,-3.9367,-3.9391,-3.9385,-3.9497,-3.9535,-3.9612,-3.9626,-3.965,-3.9665,-3.9651,-3.9715,-3.972,-3.9725,-3.9747,-3.9755,-3.9663,-3.9663,-3.9663,-3.9663,0,-3.9044,-3.9099,-3.9133,-3.9209,-3.9248,-3.9301,-3.9347,-3.9382,-3.9402,-3.9435,-3.9502,-3.955,-3.9611,-3.9631,-3.9648,-3.9711,-3.9707,-3.9707,-3.9697,-3.9732,-3.9753,-3.9761,-3.9663,-3.9663,-3.9663,-3.9663,0,0,-3.9068,-3.9167,-3.9179,-3.9215,-3.9287,-3.933,-3.9384,-3.9447,-3.9477,-3.9528,-3.9574,-3.9648,-3.9651,-3.9686,-3.9709,-3.9742,-3.9786,-3.9739,-3.9741,-3.9748,-3.986,-3.986,-3.9869,-3.9794,-3.9795,-3.9797,-3.9856,0,-3.9116,-3.9217,-3.9255,-3.9337,-3.939,-3.9417,-3.9464,-3.9513,-3.9546,-3.9594,-3.9629,-3.9682,-3.968,-3.9702,-3.9736,-3.9774,-3.9809,-3.977,-3.9837,-3.9839,-3.9824,-3.9879,-3.9879,-3.9932,-3.9864,-3.9865,-3.9866,0,-3.9185,-3.9241,-3.933,-3.9399,-3.9422,-3.9465,-3.9527,-3.9573,-3.9629,-3.965,-3.9692,-3.9713,-3.977,-3.9756,-3.9836,-3.9808,-3.9838,-3.9861,-3.9863,-3.9872,-3.9856,-3.9891,-3.995,-3.9959,-3.9879,-3.9878,-3.9877,0,-3.9197,-3.9294,-3.9361,-3.939,-3.9471,-3.9501,-3.9535,-3.9591,-3.9627,-3.9681,-3.9705,-3.9763,-3.9795,-3.9839,-3.9875,-3.9861,-3.9952,-3.994,-3.9971,-3.997,-3.999,-3.9988,-4.0056,-4.0006,-4.0006,-4.0006,-4.0006,0,-3.9248,-3.9301,-3.9368,-3.9409,-3.947,-3.9512,-3.957,-3.9606,-3.9656,-3.9704,-3.9729,-3.9772,-3.9817,-3.9866,-3.9894,-3.9957,-3.997,-3.9989,-3.9996,-3.9988,-3.9986,-4.0009,-4.0007,-4.0008,-4.0007,-4.0007,-4.0007,0,-3.9271,-3.9318,-3.9393,-3.9465,-3.9484,-3.9526,-3.9588,-3.9628,-3.9663,-3.9723,-3.9739,-3.9793,-3.9853,-3.9894,-3.9968,-3.9988,-4.0056,-4.0061,-4.0038,-4.0042,-4.0072,-4.0069,-4.0158,-4.0173,-4.0111,-4.0111,-4.0112,0,-3.9301,-3.9344,-3.9422,-3.9458,-3.9494,-3.955,-3.9589,-3.9632,-3.9671,-3.974,-3.9772,-3.9834,-3.9886,-3.998,-4.0025,-4.0083,-4.0091,-4.0118,-4.0099,-4.0091,-4.0094,-4.0092,-4.0097,-4.0121,-4.0121,-4.0122,-4.0122,0,-3.935,-3.9372,-3.9429,-3.9494,-3.9541,-3.9594,-3.9646,-3.9673,-3.9725,-3.9767,-3.9831,-3.9872,-3.9951,-4.0012,-4.0075,-4.0109,-4.0125,-4.0128,-4.0139,-4.0131,-4.0117,-4.0127,-4.0048,-4.0126,-4.0125,-4.0125,-4.0125,-4.0125,-3.9379,-3.942,-3.9483,-3.9546,-3.9591,-3.964,-3.9683,-3.9725,-3.978,-3.985,-3.9871,-3.9938,-3.9994,-4.0081,-4.0116,-4.0167,-4.0165,-4.0179,-4.0183,-4.0187,-4.0188,-4.0108,-4.0178,-4.0178,-4.0178,-4.0178,-4.0178,0,-3.9432,-3.9475,-3.9532,-3.9608,-3.9657,-3.9671,-3.973,-3.977,-3.9829,-3.9882,-3.9934,-4.0008,-4.0068,-4.0119,-4.0181,-4.0213,-4.0222,-4.0228,-4.0227,-4.0235,-4.0186,-4.0172,-4.022,-4.022,-4.022,-4.022,-4.022,-4.022,-3.9465,-3.9536,-3.9565,-3.9659,-3.97,-3.9768,-3.9802,-3.9847,-3.989,-3.9973,-4.0025,-4.0059,-4.0111,-4.0177,-4.0233,-4.0247,-4.0269,-4.0274,-4.0289,-4.0242,-4.0238,-4.0233,-4.022,-4.0278,-4.0278,-4.0334,-4.0334,-4.0335]}]]